Home > Weather > Liverpool > Past weeks

Flag for United Kingdom Weather for the Past 2 Weeks in Liverpool, England, United Kingdom

Now
45 °F

Clear.


Feels Like: 40 °F
Forecast: 48 / 53 °F
Wind: 9 mph from West

Location: Liverpool Airport

Current Time: May 3, 2016 at 12:54:58 AM

Latest Report: May 3, 2016 at 12:20 AM


Visibility: 10 mi

Pressure: 30.12 "Hg

Humidity: 81%

Dew Point: 39 °F

Location of LiverpoolLocation

Historic Weather in Liverpool — Graph

°F

Liverpool Temperature Yesterday

Maximum temperature yesterday: 57 °F (at 2:20 PM)
Minimum temperature yesterday: 45 °F (at 10:50 PM)
Average temperature yesterday: 52 °F

High & Low Weather Summary for the Past Weeks

 TemperatureHumidityPressure
High63 °F (Apr 20, 3:50 PM)100% (Apr 20, 2:20 AM)30.48 "Hg (Apr 20, 2:20 AM)
Low37 °F (Apr 23, 6:20 AM)37% (Apr 20, 5:20 PM)29.65 "Hg (Apr 29, 4:20 AM)
Average47 °F73%30.08 "Hg
* Reported Apr 17 11:20 PM — May 2 11:50 PM, Liverpool, Weather by CustomWeather, © 2016

Note: Actual official high and low records may vary slightly from our data, if they occured in-between our weather recording intervals... More about our weather records

Advertising

Liverpool Weather History for the Previous 24 Hours

Scroll right to see more
 ConditionsComfort  
Time TempWeatherWind HumidityBarometerVisibility
11:50 PM
Mon, May 2
45 °FClear.7 mph81%30.12 "Hg10 mi
11:20 PM45 °FClear.8 mph81%30.12 "Hg10 mi
10:50 PM45 °FClear.8 mph87%30.09 "Hg10 mi
10:20 PM46 °FClear.10 mph76%30.09 "Hg10 mi
9:50 PM46 °FPassing clouds.14 mph82%30.09 "HgN/A
9:20 PM48 °FPassing clouds.16 mph76%30.07 "HgN/A
8:50 PM46 °FPassing clouds.16 mph76%30.07 "HgN/A
8:20 PM48 °FPassing clouds.20 mph76%30.04 "HgN/A
7:50 PM48 °FPassing clouds.15 mph66%30.04 "HgN/A
7:20 PM50 °FScattered showers. Scattered clouds.23 mph67%30.04 "HgN/A
6:50 PM50 °FScattered showers. Scattered clouds.23 mph67%30.01 "HgN/A
6:20 PM52 °FScattered showers. Scattered clouds.18 mph62%30.01 "HgN/A
5:50 PM54 °FScattered showers. Scattered clouds.17 mph58%30.01 "HgN/A
5:20 PM55 °FScattered showers. Scattered clouds.23 mph59%29.98 "HgN/A
4:50 PM57 °FScattered clouds.22 mph55%29.98 "HgN/A
4:20 PM54 °FScattered clouds.20 mph58%29.98 "HgN/A
3:50 PM57 °FScattered clouds.18 mph55%29.98 "HgN/A
3:20 PM57 °FScattered clouds.22 mph55%29.98 "HgN/A
2:50 PM55 °FScattered clouds.18 mph59%29.98 "HgN/A
2:20 PM57 °FScattered clouds.21 mph63%29.95 "HgN/A
1:50 PM55 °FScattered clouds.20 mph72%29.95 "HgN/A
1:20 PM55 °FScattered clouds.17 mph77%29.95 "HgN/A
12:50 PM50 °FBroken clouds.12 mph88%29.98 "HgN/A
12:20 PM48 °FSprinkles. Broken clouds.17 mph94%29.98 "Hg6 mi
11:50 AM52 °FSprinkles. Broken clouds.9 mph94%29.95 "Hg6 mi
11:20 AM50 °FSprinkles. Broken clouds.12 mph94%29.95 "Hg6 mi
10:20 AM54 °FBroken clouds.17 mph82%29.92 "HgN/A
9:50 AM55 °FBroken clouds.15 mph77%29.92 "HgN/A
9:20 AM55 °FScattered clouds.16 mph77%29.92 "HgN/A
8:50 AM54 °FScattered clouds.10 mph88%29.92 "HgN/A
8:20 AM54 °FScattered clouds.9 mph82%29.92 "HgN/A
7:20 AM52 °FScattered clouds.13 mph88%29.95 "HgN/A
6:20 AM52 °FPassing clouds.12 mph88%29.98 "HgN/A
5:50 AM52 °FPassing clouds.12 mph88%30.01 "HgN/A
5:20 AM52 °FPassing clouds.10 mph94%30.01 "HgN/A
4:20 AM54 °FPassing clouds.10 mph88%30.04 "HgN/A
3:50 AM54 °FPartly cloudy.10 mph88%30.04 "HgN/A
3:20 AM54 °FMostly cloudy.9 mph88%30.04 "HgN/A
2:50 AM54 °FMostly cloudy.9 mph88%30.07 "HgN/A
2:20 AM54 °FPassing clouds.9 mph88%30.07 "HgN/A
1:50 AM52 °FClear.15 mph94%30.09 "Hg10 mi
1:20 AM54 °FClear.16 mph88%30.09 "Hg10 mi
12:50 AM54 °FPassing clouds.10 mph88%30.09 "HgN/A
12:20 AM52 °FPassing clouds.7 mph94%30.09 "HgN/A
Weather by CustomWeather, © 2016

See weather overviewHow to use our weather pages